Location: Contebault
(47.2078°N, 0.2431°E)
Time: 02:09:32
(UTC+00:00)

Daily predictions for brighter satellites

Satellite Brightness Start Highest point End
(mag) Time Altitude Azimuth Time Altitude Azimuth Time Altitude Azimuth
USA 215 4.3 03:21:12 10° E 03:25:43 39° NE 03:25:43 39° NE
Cosmos 1943 Rocket 2.9 04:06:38 51° E 04:06:38 51° E 04:11:44 10° NE
CZ-2C R/B 4.3 04:04:47 10° SE 04:09:30 31° ENE 04:13:24 14° N
CENTAUR R/B 2.6 04:16:08 70° SE 04:16:17 71° SE 04:23:18 10° NE
Cosmos 2297 3.9 04:21:06 67° ESE 04:21:07 67° ESE 04:26:49 10° NNE
NOSS 3-2 (A) 3.4 04:27:50 73° NNE 04:27:50 73° NNE 04:33:47 10° NE
Cosmos 2278 Rocket 4.1 04:33:50 18° N 04:33:50 18° N 04:35:30 10° NNE
NOSS 3-2 (C) 3.5 04:33:35 52° S 04:34:51 68° ESE 04:41:13 10° NE
Envisat 4.2 04:31:01 10° NNE 04:35:48 40° E 04:40:34 10° SSE
Meteor 2-3 Rocket 3.7 04:36:32 10° S 04:42:11 82° E 04:47:57 10° NNE
Cosmos 968 Rocket 3.7 04:42:38 28° S 04:45:20 67° ESE 04:50:26 10° NNE
Genesis I 4.3 04:49:23 41° SSE 04:49:23 41° SSE 04:52:07 10° SE
Cosmos 921 Rocket 3.2 04:50:35 69° ENE 04:50:39 69° ENE 04:55:05 10° SSE
DNEPR-1 R/B 4.5 04:53:14 41° N 04:54:29 52° NE 04:59:49 10° SE
Meteor 1-26 Rocket 4.2 04:53:51 31° NNW 04:56:53 79° W 05:02:39 10° S
Cosmos 1812 3.3 04:56:57 54° ENE 04:57:15 56° ENE 05:01:01 10° SSE
USA 238 DEB 3.5 05:00:10 38° SW 05:02:53 78° NW 05:09:49 10° NE
USA 238 3.5 05:00:14 38° SW 05:02:59 78° NW 05:09:55 10° NE
Cosmos 1151 Rocket 3.4 05:01:35 24° N 05:04:07 62° ENE 05:08:27 10° SSE
Cosmos 2344 3.6 05:03:34 42° W 05:05:50 56° NW 05:13:45 10° NE
Cosmos 1766 Rocket 4.4 05:02:18 10° SSE 05:06:28 48° E 05:10:39 10° NNE
USA 215 3.2 05:03:29 10° SE 05:10:02 89° SW 05:13:03 35° NW
Kosmos-917 4.1 05:12:30 51° N 05:12:30 51° N 05:16:31 10° NE
Cosmos 1782 4.2 05:15:55 26° SSW 05:15:55 26° SSW 05:17:50 10° S
Meteor 1-31 Rocket 3.1 05:10:26 10° NNE 05:14:19 67° ESE 05:18:11 10° S
Cosmos 2279 Rocket 4.1 05:08:30 10° N 05:14:43 75° E 05:20:54 10° SSE
Cosmos 1328 Rocket 4.0 05:12:41 12° N 05:16:47 60° ENE 05:21:05 10° SSE
SJ-12 3.8 05:15:36 10° N 05:19:45 78° WNW 05:23:53 10° SSW
FALCON 9 DEB 3.4 05:21:07 57° NNE 05:21:07 57° NNE 05:24:02 10° ENE
Cosmos 2369 Rocket 2.1 05:15:09 10° SSW 05:20:44 87° ESE 05:26:23 10° NNE
Cosmos 1862 3.5 05:18:49 10° S 05:22:43 68° E 05:26:40 10° NNE
COSMO-SKYMED 1 2.5 05:19:49 10° S 05:24:08 66° WSW 05:25:48 36° NNW
H-2A R/B 2.6 05:24:03 10° N 05:27:43 61° WNW 05:31:24 10° SSW
Cosmos 1634 Rocket 4.0 05:23:37 10° NNW 05:29:46 57° W 05:35:49 10° S
Cosmos 836 Rocket 4.4 05:27:51 24° NNW 05:31:00 72° WSW 05:36:11 10° SSE
CZ-4B R/B 4.2 05:33:42 10° NNE 05:37:02 36° E 05:40:22 10° SSE
Tsikada Rocket 4.3 05:32:17 10° SW 05:38:03 39° WNW 05:43:55 10° N
CZ-4B R/B 4.0 05:37:51 10° ESE 05:40:16 19° ENE 05:42:40 10° NNE
MOS 1-B Rocket 4.3 05:34:32 10° SSW 05:40:29 41° W 05:44:43 16° NW
Cosmos 1408 Rocket 4.3 05:37:39 10° S 05:41:51 54° E 05:46:03 10° NNE
Cosmos 1656 Rocket 3.5 05:39:00 10° SSW 05:44:24 85° WNW 05:49:54 10° NNE
Cosmos 1503 Rocket 4.2 05:39:40 10° SSW 05:44:56 78° ESE 05:50:17 10° NNE
CZ-4C R/B 2.6 05:41:59 10° S 05:45:06 61° WSW 05:46:00 39° NW
DMSP B5D2-2 4.2 05:40:21 10° SSE 05:45:34 78° ENE 05:50:48 10° NNW
CZ-2C R/B 3.0 05:44:24 10° S 05:49:38 44° W 05:54:47 10° NNW
Cosmos 2227 Rocket 4.5 05:46:25 10° N 05:49:53 16° NE 05:53:20 10° ENE
Cosmos 1943 Rocket 2.9 05:48:14 25° W 05:50:16 31° NW 05:55:16 10° NNE
Cosmos 1486 Rocket 4.0 05:47:24 10° SW 05:52:37 57° WNW 05:57:50 10° NNE
SL-8 R/B 3.8 05:54:21 25° W 05:57:07 70° SSW 06:01:52 10° ESE
Cosmos 1515 Rocket 3.5 05:52:43 10° N 05:57:08 86° E 06:01:28 10° S
FALCON 9 DEB 3.8 05:56:51 27° NNW 05:57:12 28° N 05:59:47 10° NE
Meteor 2-15 4.3 05:52:19 10° NNW 05:58:25 79° W 06:04:27 10° S
Cosmos 2180 Rocket 4.4 05:53:54 10° NNW 06:00:02 68° W 06:06:06 10° S
Meteor 1-27 Rocket 3.9 05:54:27 10° N 06:00:06 76° ENE 06:05:50 10° SSE
Iridium 2 4.5 05:58:39 10° SW 06:01:58 28° WNW 06:05:19 10° NNW
FALCON 9 DEB 4.0 06:03:16 23° NNW 06:03:53 25° N 06:06:20 10° NE
COSMOS 2487 4.3 06:01:03 10° N 06:03:58 26° ENE 06:06:51 10° ESE
Cosmos 773 Rocket 4.0 05:59:11 10° NNW 06:04:27 89° ENE 06:09:38 10° SSE
FALCON 9 DEB 4.1 06:05:15 22° NNW 06:05:58 24° N 06:08:25 10° NE
SJ 16-02 2.5 06:02:06 10° S 06:06:18 47° ESE 06:10:31 10° NNE
CENTAUR R/B 3.3 06:03:21 18° W 06:07:36 36° NNW 06:14:26 10° NE
NOAA 11 4.1 06:03:11 10° N 06:08:40 72° WNW 06:14:07 10° SSW
Alouette 2 Rocket 3.9 06:06:36 10° N 06:10:30 55° ENE 06:13:59 10° SSE
Meteor 2-19 Rocket 4.4 06:06:47 10° S 06:12:50 83° W 06:18:56 10° N
NOAA 12 4.2 06:08:32 10° NNE 06:13:51 85° ESE 06:19:06 10° SSW
Cosmos 1340 Rocket 3.4 06:10:44 10° S 06:14:37 61° E 06:18:33 10° NNE
Envisat 3.7 06:10:18 10° N 06:14:41 30° WNW 06:19:04 10° SW
SL-27 R/B 2.4 06:14:07 10° NNW 06:17:43 78° WSW 06:21:16 10° SSE
Cosmos 1500 Rocket 3.8 06:13:36 10° S 06:18:03 76° E 06:22:32 10° NNE
Cosmos 1939 Rocket 2.8 06:16:25 10° NNE 06:20:23 87° ESE 06:24:17 10° SSW
FALCON 9 DEB 4.0 06:21:30 17° NW 06:22:57 25° N 06:25:28 10° NE
Cosmos 2098 Rocket 4.1 06:19:39 10° WSW 06:22:59 24° WNW 06:26:58 10° NNW
NOSS 3-2 (C) 4.2 06:21:06 11° W 06:26:16 34° NNW 06:32:25 10° NE
Cosmos 1805 Rocket 4.3 06:25:23 10° S 06:29:42 59° E 06:34:01 10° NNE
Okean O Rocket 4.2 06:27:04 10° NE 06:30:43 24° E 06:34:19 10° SSE
Sich 1 4.1 06:27:26 10° SSE 06:31:34 47° E 06:35:40 10° NNE
H-2A R/B 2.2 06:28:07 10° S 06:32:16 53° W 06:36:33 10° NNW
ATLAS 3B R/B 3.3 06:27:58 10° SSW 06:34:20 60° ESE 06:41:02 10° NE
Cosmos 1174 3.7 06:34:50 10° SSW 06:37:46 59° ESE 06:40:50 10° NE
ATLAS 5 CENTAUR R/B 1.9 06:34:26 10° SSW 06:38:12 63° SE 06:42:28 10° NE
Cosmos 1500 4.5 06:34:34 10° SSE 06:38:13 45° E 06:41:52 10° NNE
ADEOS 4.1 06:34:05 10° N 06:38:50 36° WNW 06:43:34 10° SW
Cosmos 158 Rocket 4.1 06:34:42 10° NNW 06:39:50 82° ENE 06:45:04 10° SSE
Cosmos 1354 Rocket 4.4 06:40:13 10° SW 06:45:13 42° WNW 06:50:17 10° N
Cosmos 1515 3.7 06:41:50 10° NNW 06:45:37 67° W 06:49:22 10° S
Meteor PRIRODA 4.5 06:43:07 10° N 06:46:15 28° WNW 06:49:22 10° SW
Okean 1 3.7 06:42:38 10° N 06:46:36 68° E 06:50:31 10° SSE
CZ-2C R/B 3.3 06:42:44 10° N 06:47:15 41° WNW 06:51:55 10° SW
NOSS 2 (A) 4.2 06:50:34 10° NW 06:53:20 70° SW 06:55:47 10° SSE
USA 215 4.3 06:48:02 10° S 06:53:34 29° SW 06:59:08 10° WNW
